Milwaukee, WI

8:47 AM CST on February 06, 2016 (GMT -0600)
Timmerman

Weather History for KMWC - February, 2013

Change the Weather History Date:

Thursday, February 7, 2013

  Actual Average Record
Temperature  
Mean Temperature 28 °F -  
Max Temperature 33 °F 29 °F 51 °F (2009)
Min Temperature 23 °F 13 °F -10 °F (1972)
Degree Days  
Heating Degree Days 36    
Moisture  
Dew Point 29 °F    
Average Humidity 90    
Maximum Humidity 100    
Minimum Humidity 86    
Precipitation  
Precipitation 0.00 in - - ()
Sea Level Pressure  
Sea Level Pressure 30.01 in    
Wind  
Wind Speed 6 mph (ESE)    
Max Wind Speed 16 mph    
Max Gust Speed 22 mph    
Visibility 3 miles    
Events Snow    
Averages and records for this station are not official NWS values.
T = Trace of Precipitation, MM = Missing Value Source: NWS Daily Summary

Daily Weather History Graph

Daily Weather History Graph

Search for Another Location

Airport or City:

Trip Planner

Search our weather history database for the weather conditions in past years. The results will help you decide how hot, cold, wet, or windy it might be!

Date:

Astronomy

Feb. 07, 2013 Rise Set
Actual Time 7:00 AM CST 5:13 PM CST
Civil Twilight 6:30 AM CST 5:42 PM CST
Nautical Twilight 5:56 AM CST 6:16 PM CST
Astronomical Twilight 5:23 AM CST 6:49 PM CST
Moon 4:41 AM CST (2/7) 2:34 PM CST (2/7)
Length of Visible Light 11h 12m
Length of Day
10h 12m
Waning Crescent, 9% of the Moon is Illuminated
Feb 7
Waning Crescent
Feb 10
New
Feb 17
First Quarter
Feb 25
Full
Mar 4
Last Quarter

Hourly Weather History & Observations

Time (CST) Temp. Windchill Dew Point Humidity Pressure Visibility Wind Dir Wind Speed Gust Speed Precip Events Conditions
12:35 AM 32.0 °F 27.5 °F 28.4 °F 87% 30.10 in 7.0 mi SSE 4.6 mph - N/A   Overcast
12:55 AM 32.0 °F 28.7 °F 28.4 °F 87% 30.09 in 7.0 mi SSE 3.5 mph - N/A   Overcast
1:15 AM 32.0 °F 25.6 °F 28.4 °F 87% 30.09 in 7.0 mi SSE 6.9 mph - N/A   Overcast
1:35 AM 32.0 °F 25.6 °F 28.4 °F 87% 30.08 in 7.0 mi SSE 6.9 mph - N/A   Overcast
1:55 AM 32.0 °F 25.6 °F 28.4 °F 87% 30.08 in 7.0 mi SE 6.9 mph - N/A   Overcast
2:15 AM 32.0 °F 24.8 °F 28.4 °F 87% 30.09 in 7.0 mi SSE 8.1 mph - N/A   Overcast
2:35 AM 32.0 °F 28.7 °F 28.4 °F 87% 30.09 in 7.0 mi SSE 3.5 mph - N/A   Overcast
2:55 AM 32.0 °F 26.4 °F 28.4 °F 87% 30.08 in 7.0 mi SSE 5.8 mph - N/A   Overcast
3:15 AM 32.0 °F 28.7 °F 28.4 °F 87% 30.07 in 5.0 mi SE 3.5 mph - N/A   Haze
3:35 AM 32.0 °F - 28.4 °F 87% 30.07 in 5.0 mi Calm Calm - N/A   Haze
3:55 AM 32.0 °F 28.7 °F 28.4 °F 87% 30.07 in 5.0 mi SE 3.5 mph - N/A   Overcast
4:15 AM 32.0 °F 28.7 °F 28.4 °F 87% 30.07 in 5.0 mi SE 3.5 mph - N/A   Overcast
4:35 AM 32.0 °F 28.7 °F 28.4 °F 87% 30.07 in 5.0 mi SE 3.5 mph - N/A   Overcast
4:55 AM 32.0 °F 27.5 °F 28.4 °F 87% 30.06 in 5.0 mi SE 4.6 mph - N/A   Overcast
5:15 AM 32.0 °F 26.4 °F 28.4 °F 87% 30.06 in 5.0 mi SE 5.8 mph - N/A   Overcast
5:35 AM 32.0 °F 25.6 °F 28.4 °F 87% 30.06 in 5.0 mi SE 6.9 mph - N/A   Overcast
5:55 AM 32.0 °F 24.8 °F 28.4 °F 87% 30.05 in 5.0 mi SSE 8.1 mph - N/A   Overcast
6:45 AM 32.0 °F 24.8 °F 28.4 °F 87% 30.04 in 5.0 mi SSE 8.1 mph - N/A   Overcast
7:45 AM 32.0 °F 25.6 °F 28.4 °F 87% 30.04 in 2.5 mi SSE 6.9 mph - N/A   Overcast
8:45 AM 32.0 °F 26.4 °F 30.2 °F 93% 30.03 in 2.0 mi SE 5.8 mph - N/A Snow Light Snow
10:45 AM 33.8 °F 28.6 °F 30.2 °F 87% 30.02 in 0.8 mi SE 5.8 mph - N/A Snow Light Snow
11:45 AM 33.8 °F 30.8 °F 30.2 °F 87% 29.99 in 1.0 mi ESE 3.5 mph - N/A Snow Snow
12:45 PM 33.8 °F - 30.2 °F 87% 29.97 in 0.8 mi Calm Calm - N/A Snow Light Snow
1:45 PM 32.0 °F - 30.2 °F 93% 29.95 in 0.5 mi Calm Calm - N/A Snow Snow
2:45 PM 32.0 °F - 30.2 °F 93% 29.92 in 0.5 mi Calm Calm - N/A Snow Snow
3:45 PM 32.0 °F - 30.2 °F 93% 29.90 in 0.5 mi Calm Calm - N/A Snow Snow
4:45 PM 32.0 °F - 30.2 °F 93% 29.90 in 0.8 mi Calm Calm - N/A Snow Light Snow
5:45 PM 32.0 °F - 30.2 °F 93% 29.91 in 1.0 mi Calm Calm - N/A Snow Light Snow
6:45 PM 32.0 °F 25.6 °F 30.2 °F 93% 29.93 in 1.5 mi NNE 6.9 mph - N/A Snow Light Snow
7:45 PM 32.0 °F 25.6 °F 30.2 °F 93% 29.94 in 1.5 mi North 6.9 mph - N/A Snow Light Snow
8:15 PM 32.0 °F 24.8 °F 32.0 °F 100% 29.94 in 2.0 mi North 8.1 mph - N/A Snow Light Snow
8:35 PM 32.0 °F 24.8 °F 32.0 °F 100% 29.95 in 2.0 mi North 8.1 mph - N/A Snow Light Snow
8:45 PM 32.0 °F 25.6 °F 30.2 °F 93% 29.95 in 2.0 mi North 6.9 mph - N/A Snow Light Snow
8:55 PM 32.0 °F 23.6 °F 32.0 °F 100% 29.95 in 1.5 mi North 10.4 mph - N/A Snow Light Snow
9:15 PM 32.0 °F 23.6 °F 30.2 °F 93% 29.95 in 1.5 mi North 10.4 mph - N/A Snow Light Snow
9:35 PM 30.2 °F 20.8 °F 30.2 °F 100% 29.96 in 1.5 mi North 11.5 mph 19.6 mph N/A Snow Light Snow
9:55 PM 30.2 °F 20.2 °F 28.4 °F 93% 29.97 in 1.5 mi North 12.7 mph 19.6 mph N/A Snow Light Snow
10:15 PM 28.4 °F 17.0 °F 26.6 °F 93% 29.98 in 1.8 mi North 15.0 mph - N/A Snow Light Snow
10:35 PM 26.6 °F 14.3 °F 24.8 °F 93% 29.98 in 1.8 mi NNW 16.1 mph 20.7 mph N/A Snow Light Snow
10:55 PM 26.6 °F 14.7 °F 23.0 °F 86% 29.99 in 1.5 mi North 15.0 mph - N/A Snow Light Snow
11:15 PM 24.8 °F 12.9 °F 23.0 °F 93% 30.00 in 1.8 mi North 13.8 mph 21.9 mph N/A Snow Light Snow
11:35 PM 24.8 °F 12.9 °F 21.2 °F 86% 30.00 in 2.0 mi North 13.8 mph 18.4 mph N/A Snow Light Snow
11:55 PM 23.0 °F 10.6 °F 21.2 °F 93% 30.01 in 2.0 mi North 13.8 mph - N/A Snow Light Snow